Вернуться в каталог

STARLINK-34503

АктивенСвязьVLEO
NORAD 64420·PAYLOAD·🇺🇸 United States

Запущен Jun 17, 2025 с Vandenberg Space Force Base

Loading…

Ближайшие Пролёты (ближайшие 24 часа)

TLE

СвежийSource: CelesTrak SupGP

Эпоха: Sep 14, 2026, 20:45 UTC

1 64420C 25129J   26257.86506944 -.00022727  00000+0 -79093-3 0  2578
2 64420  69.9996 315.7753 0003442 269.8666 197.2733 15.29576056    12

Отслеживайте STARLINK-34503 в реальном времени с AllMySat

Download on the App Store